Location: Archemont
(49.1579°N, 1.7598°E)
Time: 09:31:42
(UTC+00:00)

deb Explorer IX - Pass Details

Date: 18 April 2024
Orbit: 513 x 891 km, 38.7° (Epoch: 23 May)

Event Time Altitude Azimuth Distance (km) Brightness Sun altitude
Rises 15:53:40 0° 263° (W) 3,517 ? 27.6°
Reaches altitude 10° 15:56:54 10° 248° (WSW) 2,557 ? 27.1°
Maximum altitude 16:01:20 21° 202° (SSW) 1,843 ? 26.4°
Drops below altitude 10° 16:05:35 10° 155° (SSE) 2,432 ? 25.7°
Sets 16:08:34 0° 140° (SE) 3,299 ? 25.3°
